Estación de Recoleta

Ultimos registro cada 15 minutos 38
Estación Fecha / Hora Temperatura Humedad Lluvia Velocidad Dirección Radiación Presion
38 Recoleta 07-05-2026 09:15 17,3 72,2 0 0 118 359,4 975,2
37 Recoleta 07-05-2026 09:00 16,7 73,3 0 0 156 316,9 975,3
36 Recoleta 07-05-2026 08:45 15,7 77,1 0 0 156 271,9 975,1
35 Recoleta 07-05-2026 08:30 14,4 85 0 0 161 224,4 975,3
34 Recoleta 07-05-2026 08:15 11,2 91,2 0 0 161 126,9 975,4
33 Recoleta 07-05-2026 08:00 11,4 90,6 0 0 161 18,1 975,4
32 Recoleta 07-05-2026 07:45 12 92,1 0 0 163 21,9 975,2
31 Recoleta 07-05-2026 07:30 11,9 92,9 0 0 163 3,1 975,1
30 Recoleta 07-05-2026 07:15 11,4 93 0 0 164 0,6 975,1
29 Recoleta 07-05-2026 07:00 11 92,2 0 0 166 0,6 975
28 Recoleta 07-05-2026 06:45 11,9 91,7 0 0 166 0,6 974,7
27 Recoleta 07-05-2026 06:30 12,3 91,8 0 0 166 0,6 974,7
26 Recoleta 07-05-2026 06:15 12,5 91,6 0 0 177 0,6 974,6
25 Recoleta 07-05-2026 06:00 12,5 91,2 0 0 178 0,6 974,5
24 Recoleta 07-05-2026 05:45 12,5 90,8 0 0 188 0,6 974,4
23 Recoleta 07-05-2026 05:30 12,7 91,2 0 0 192 0,6 974,2
22 Recoleta 07-05-2026 05:15 12,5 91,6 0 0 199 0,6 974,2
21 Recoleta 07-05-2026 05:00 12,6 92,2 0 0,3 159 0,6 974,1
20 Recoleta 07-05-2026 04:45 12,9 92,9 0 0 166 0,6 973,9
19 Recoleta 07-05-2026 04:30 13,2 93,3 0 0 167 0,6 974
18 Recoleta 07-05-2026 04:15 13,5 93,4 0 0 149 0,6 973,9
17 Recoleta 07-05-2026 04:00 13,7 93,3 0 0 147 0,6 973,7
16 Recoleta 07-05-2026 03:45 13,8 93,6 0 0 146 0,6 973,8
15 Recoleta 07-05-2026 03:30 13,9 93,5 0 0 146 0,6 973,7
14 Recoleta 07-05-2026 03:15 13,9 93,6 0 0 146 0,6 973,8
13 Recoleta 07-05-2026 03:00 14 93,8 0 0 146 0,6 973,9
12 Recoleta 07-05-2026 02:45 13,8 93,9 0 0 146 0,6 974,1
11 Recoleta 07-05-2026 02:30 13,7 93,8 0 0 146 0,6 974,1
10 Recoleta 07-05-2026 02:15 13,6 93,6 0 0 146 0,6 974
9 Recoleta 07-05-2026 02:00 13,7 93,3 0 0 146 0,6 974,2
8 Recoleta 07-05-2026 01:45 13,8 92,8 0 0 149 0,6 974,1
7 Recoleta 07-05-2026 01:30 14,1 92,4 0 0 153 0,6 974
6 Recoleta 07-05-2026 01:15 14,1 92,1 0 0 157 0,6 974,2
5 Recoleta 07-05-2026 01:00 14,3 91,5 0 0,3 164 0,6 973,9
4 Recoleta 07-05-2026 00:45 14,3 91,5 0 0 152 0,6 974
3 Recoleta 07-05-2026 00:30 14,3 91,4 0 0 145 0,6 974
2 Recoleta 07-05-2026 00:15 14,2 91,2 0 0 153 0,6 974
1 Recoleta 07-05-2026 00:00 14,3 90,7 0 0 160 0,6 973,9